OBJECT CP, 68501

Orbit data source: Space-Track

You're viewing an Uncataloged Satellite

Recently launched and/or uncataloged satellites may have evolving metadata. Metadata may include but not limited to: Owner, Maufacturer, Bus, Motor, and Mission.

OBJECT CP, 68501 is a satellite in SSO that was launched on Mon, 30 Mar 2026 UTC via an FALCON 9 launch vehicle from the Air Force Western Test Range (AFWTR). Unknown objects in Earth's orbit typically refer to objects detected orbiting the Earth but have not yet been identified or cataloged. These objects could be anything from previously untracked satellites, spent rocket stages, debris from satellite collisions, or even natural meteoroids temporarily captured by Earth's gravity.

Loading next visibility...
Identifier
68501, 2026-067CP
Orbit
SSO
Country
Flag of TBDTBD
Related business
None
Manufacturer
Unknown
Mission
Operational spacecraft
Bus & Motor
Unknown
Mass
Unknown
Launch date (UTC)
2026-03-30 (1 month ago)
Launch vehicle
FALCON 9
Launch site
Air Force Western Test Range (AFWTR)
Object type
Unknown
Shape & HBR
Unknown shape, 1.1 m
Radar Cross Section
RCS unknown

Expand to show TLE details & history
Last TLE update: 14 hours ago

TLE from 14 hours ago
0 OBJECT CP
1 68501U 26067CP  26127.14379869  .00002193  00000-0  22568-3 0  9997
2 68501  97.7609  86.0243 0004051 140.9404 219.2107 14.91317583  5600
Epoch: 2026-05-07T03:27Z
TLE epoch observation values (Epoch: 2026-05-07T03:27:04.206Z)
Latitude
-0.00011°
Longitude
169.26263°
Altitude
599.056 km
Speed
7.559 km/s
True Right ascension
05h 44m 05s
True Declination
0° 00' 00"
Sunlit
Object was in daylight at epoch
Visualization orbit readout
Latitude
Unknown
Longitude
Unknown
Altitude
Unknown
Speed
Unknown
Apparent Right ascension
Unknown
Apparent Declination
Unknown
Sunlit
N/A
Visualization observer readout
Local Sidereal Time
01:57:51
Azimuth
Unknown
Elevation
Unknown
Doppler factor
Unknown
Orbital elements
Apogee altitude
593.669 km
Perigee altitude
588.023 km
Semi-major axis
6,968.983 km
Eccentricity
0.00041
Inclination
97.7609°
RAAN
86.0243°
Arg. of periapsis
140.9404°
True anomaly
219.18137°
Mean anomaly
219.2107°
Eccentric anomaly
219.19603°
Mean motion
3.73069 °/min
Orbital period
96.5 mins
BSTAR
0.00022568
Loading maneuver chart data...
Computing Atmospheric mass density...
Loading historical data...
Loading historical data...
Loading historical data...
Loading historical data...
Loading historical data...
Loading historical data...
Loading historical data...

Documentation

Showing up to 5 results
|